STARLINK-32143, 60296

Orbit data source: Space-Track

STARLINK-32143, 60296 is a payload satellite owned by SpaceX/Seattle (US) in LEO that was launched on Sun, 28 Jul 2024 UTC via an FALCON 9 launch vehicle from the Air Force Eastern Test Range (AFETR). Payloads include a variety of satellites, spacecraft, and rockets equipped with specific instruments for various scientific and technological missions. These include communications satellites like Starlink; space stations such as the ISS; scientific satellites like the Hubble; Earth observation satellites from companies like Planet Labs, Umbra, and HawkEye 360; GPS; miniature CubeSats for education and research; and military/defense satellites.

Loading next visibility...
STARLINK-32143 details
Identifier
60296, 2024-132U
Orbit
LEO
Last TLE update13 hours ago
Origin
Flag of USSpaceX/Seattle (US)
ManufacturerSpaceX/Seattle
MissionOperational spacecraft
Bus & MotorSTARLINK V2M, Unknown motor
Mass730 kg wet, ~700 kg dry
Launch date (UTC)
2024-07-28 (6 months ago)
Launch vehicle
FALCON 9
Launch site
Air Force Eastern Test Range (AFETR)
Object type
Payload
Rocket body
Debris
Shape & HBRUnknown
Radar Cross SectionLarge (>1 m²)

Expand to show TLE details & history

TLE from 13 hours ago
0 STARLINK-32143
1 60296U 24132U   25014.93402013 -.00001076  00000-0 -24223-4 0  9992
2 60296  53.1599 197.7477 0001173  91.0590 269.0546 15.30186143 27446
Epoch: 2025-01-14T22:24Z
Definitive object data (Epoch: 2025-01-14T22:24:59.339Z)
Latitude0.00006°
Longitude106.8669°
Altitude476.169 km
Speed7.629 km/s
True Right ascension13h 10m 59s
True Declination0° 00' 00"
Sunlit
Object was in daylight at TLE epoch
Visualization TLE readout
Latitude31.32907°
Longitude131.37442°
Altitude476.685 km
Speed7.632 km/s
Apparent Right ascension18h 30m 07s
Apparent Declination-7° 05' 03"
Sunlit
Object is in daylight
Visualization observer readout
Local Sidereal Time11:48:05
Azimuth88.736° E
Elevation-12.588°
Doppler factor1
Orbital elements
Apogee altitude476.317 km
Perigee altitude474.709 km
Semi-major axis6,853.65 km
Eccentricity0.0001173
Inclination53.1599°
RAAN197.7477°
Arg. of periapsis91.059°
True anomaly269.04116°
Mean anomaly269.0546°
Eccentric anomaly269.04788°
Mean motion3.82525 °/min
BSTAR-0.000024223
Orbital period94.11 mins
Loading maneuver chart data...
Loading historical data...
Loading historical data...
Loading historical data...
Loading historical data...
Loading historical data...
Loading historical data...
Loading historical data...

STARLINK-32143 Visibility forecast

Observer location: undefined°, undefined

Span
Click to sort rows by Start time (UTC) header in descending order
Start Az.
Max El. time (UTC)
Max El. Az.
Max El.
End time (UTC)
End Az.
6 mins2025-01-15 14:14:56.428Z203.309° SW2025-01-15 14:17:56.428Z143.513° SSE32.93°2025-01-15 14:20:56.428Z67.147° ENE
4 mins2025-01-15 15:54:56.428Z297.976° NW2025-01-15 15:55:56.428Z324.989° NNW24.783°2025-01-15 15:58:56.428Z28.304° NE
5 mins2025-01-15 20:50:56.428Z334.264° NNW2025-01-15 20:52:56.428Z27.795° NE31.47°2025-01-15 20:55:56.428Z99.04° ESE
4 mins2025-01-15 22:28:56.428Z273.404° WNW2025-01-15 22:30:56.428Z226.347° WSW23.593°2025-01-15 22:32:56.428Z182.247° SSW
|